Regional Weather Roundup
Issued by NWS Charleston, SC

Current Version | Previous Version | Graphics & Text | Print | Product List | Glossary On
Versions: 1 2 3 4 5 6 7 8 9 10 11 12 13 14 15 16 17 18 19 20 21 22 23 24 25 26 27 28 29 30 31 32 33 34 35 36 37 38 39 40 41 42 43 44 45 46 47 48 49 50
562
ASUS42 KCHS 231527
RWRCHS

REGIONAL WEATHER ROUNDUP
NATIONAL WEATHER SERVICE CHARLESTON SC
1100 AM EDT WED AUG 23 2017

NOTE: "FAIR" INDICATES FEW OR NO CLOUDS BELOW 12,000 FEET WITH NO
SIGNIFICANT WEATHER AND/OR OBSTRUCTIONS TO VISIBILITY.

NOT ALL STATIONS ARE QUALITY CONTROLLED. USE DATA WITH CAUTION...
ESPECIALLY DEWPOINT OBSERVATIONS.

SCZ027-030-031-034>040-042>050-231600-
...SOUTHEAST SOUTH CAROLINA...

CITY           SKY/WX    TMP DP  RH WIND       PRES   REMARKS
N CHARLESTON   MOSUNNY   87  75  67 SW8       29.95R HX  96
WATERFRONT PRK   N/A     83  77  81 W5        29.79S HX  92
JOHNS ISLAND   FAIR      88  77  70 S8        29.95S HX 100
PINOPOLIS        N/A     84  77  79 W7        29.87F HX  94
MONCKS CORNER  FAIR      86  75  70 SW8       29.94S HX  95
SUMMERVILLE    FAIR      86  75  70 W6        29.95S HX  95
BEAUFORT MCAS  SUNNY     89  77  67 MISG      29.95S HX 101
BEAUFORT ARPT  FAIR      88  75  66 W9        29.95S HX  97
HILTON HEAD IS SUNNY     88  77  70 W6        29.96S HX 100
WALTERBORO     SUNNY     86  73  66 W6        29.96S HX  93
ALLENDALE      NOT AVBL

...SOUTHERN MIDLANDS AND PEE DEE...

CITY           SKY/WX    TMP DP  RH WIND       PRES   REMARKS
GEORGETOWN     FAIR      86  75  70 SW8       29.95S HX  95
KINGSTREE      FAIR      86  75  70 SW5       29.92F HX  95
ORANGEBURG     SUNNY     87  74  64 SW6       29.94S HX  95
BARNWELL       FAIR      91  75  59 VRB5      29.94F HX 102
AIKEN          FAIR      88  73  62 SW9       29.97S HX  96
MANNING        FAIR      86  61  42 CALM      29.93S
COLUMBIA       MOSUNNY   90  72  55 SW7       29.91S HX  97
SUMTER         SUNNY     88  73  59 SW9       29.89F HX  95
FLORENCE       SUNNY     86  75  69 SW6       29.92S HX  95
MYRTLE BEACH   SUNNY     88  75  66 W12       29.94R HX  97
N MYRTLE BEACH SUNNY     87  75  67 SW9       29.93R HX  96

$$

GAZ063-065-086>088-099>101-113>116-118-119-134>141-150-231600-
...SOUTHEAST GEORGIA...

CITY           SKY/WX    TMP DP  RH WIND       PRES   REMARKS
SAVANNAH ARPT  MOSUNNY   89  75  63 NW8       29.96S HX  99
HUNTER AAF     SUNNY     89  76  65 W7        29.93F HX 100
FORT STEWART   SUNNY     88  74  63 W5        29.94S HX  96
STATESBORO     SUNNY     89  72  56 CALM      29.96S HX  97
SYLVANIA       SUNNY     89  78  70 NW5       29.96F HX 102
CLAXTON        FAIR      90  76  62 W7        29.96S HX 102

...CSRA...CENTRAL AND FAR SOUTHEAST GEORGIA...

CITY           SKY/WX    TMP DP  RH WIND       PRES   REMARKS
THOMSON        SUNNY     87  73  62 N8        29.99S HX  95
AUGUSTA-BUSH   SUNNY     90  77  65 SW7       29.93S HX 103
AUGUSTA-DANIEL SUNNY     88  72  58 W6        29.95S HX  94
SWAINSBORO     FAIR      88  73  62 W7        29.97S HX  96
VIDALIA        SUNNY     90  73  58 NW3       29.97F HX  98
EASTMAN        FAIR      91  64  40 NW6       30.00S HX  92
HAZLEHURST     FAIR      92  66  43 NW3       29.97S HX  94
ALMA           SUNNY     88  75  65 NW7       29.97S HX  97
WAYCROSS       SUNNY     89  73  58 W5        29.97F HX  97
JESUP          FAIR      90  73  58 CALM      29.97S HX  98
BAXLEY         FAIR      86  73  66 NW3       29.97S HX  93
BRUNSWICK      SUNNY     88  72  58 W5        29.98S HX  94
SAINT SIMONS   SUNNY     88  74  63 NW5       29.96S HX  96

$$

SCZ027-028-034-036>038-045-046-048>050-GAZ119-141-231600-
...LAKE AND SUPPLEMENTAL COASTAL OBSERVATIONS...

STATION/POSITION TIME  TEMP    WIND        PRES    WAVE   SWELL
                       AIR SEA DIR/SP/G            HT/PER HT/PER/DIR
                 (UTC) (F)     (DEG/KT/KT) (MB)    (FT/S) (FT/S/D)
WINYAH BAY       1445   84     260/  7     1014.0S
LAKE MURRAY      1520   85     280/  7/ 13 1012.2
ACE BASIN NERRS  1445   87     250/  2     1014.0S
FORT PULASKI     1500   85 86  300/  4/  5 1014.8
SAPELO ISLAND    1500   88        CALM     1015.0

$$

ANZ835-935-AMZ111-154-330-350-352-354-370-450-454-472-231600-
...C-MAN AND BUOY OBSERVATIONS...

STATION/POSITION TIME  TEMP    WIND        PRES    WAVE   SWELL
                       AIR SEA DIR/SP/G            HT/PER HT/PER/DIR
                 (UTC) (F)     (DEG/KT/KT) (MB)    (FT/S) (FT/S/D)
BUOY 41004       1510   82 84  220/  8/  8 1014.3
BUOY 41008       1450   82 85  300/  6/  8 1014.4R   3/10   2/110/10
FOLLY BEACH CMAN 1500   85     230/  5/  7 1014.8S
CAPERS NEARSHORE 1508   82 85  250/ 10/ 14 1014.0R
FRIPP NEARSHORE  1508   84     250/  6/ 10 1014.0R


STATION/POSITION TIME  TEMP    WIND        PRES    WAVE   SWELL
                       AIR SEA DIR/SP/G            HT/PER HT/PER/DIR
                 (UTC) (F)     (DEG/KT/KT) (MB)    (FT/S) (FT/S/D)
5E ST. MARYS GA  1500      85                N/A     3/10   2/110/11
FRYING PAN BUOY  1510   81 84  230/ 12/ 16 1013.9
BUOY 41025       1450   83 84  240/ 16/ 17 1012.7S   4/ 9   2/140/ 9
CAPE LOOKOUT NC  1500   82     230/ 10/ 13 1012.9R
BUOY 41002       1450   83 84  300/  4/  6 1015.4R   3/ 8   3/120/ 8
BUOY 41010       1510   84 85  170/  8/ 10 1015.2
ST AUGUSTINE FL  1500   81 81   60/  5/  5 1015.9R


$$




USA.gov is the U.S. government's official web portal to all federal, state and local government web resources and services.